{"data":{"norad_id":48330,"epoch":"2026-09-19T16:26:11.081472Z","epoch_age_seconds":104082,"freshness":"FRESH","line1":"1 48330U 21036BG  26262.68485048  .00000153  00000+0  16696-4 0  9991","line2":"2 48330  53.1593 278.6585 0001561  63.3531 296.7630 15.31699596297769","mean_motion":15.31699596,"eccentricity":0.0001561,"inclination_deg":53.1593,"raan_deg":278.6585,"arg_perigee_deg":63.3531,"mean_anomaly_deg":296.763,"bstar":1.6696e-5,"rev_number":29776,"period_min":94.013212757941,"perigee_km":469.67208964194,"apogee_km":471.81030941584,"semimajor_km":6848.8781995289,"source":"CELESTRAK","updated_at":"2026-09-20T09:00:38.937721Z"}}